Flag for U.S.A. Weather past 2 weeks in Houston, Texas, U.S.A.

Now
67 °F

Passing clouds.


Feels Like: 67 °F
Forecast: 51 / 76 °F
Wind: 6 mph from East

Location: Houston Hobby Airport

Current Time: Jan 27, 2015 at 7:25:34 PM

Latest Report: Jan 27, 2015 at 6:53 PM


Visibility: 10 mi

Pressure: 30.13 "Hg

Humidity: 45%

Dew point: 45 °F

Location of HoustonLocation

Historic Weather in Houston — Graph

°F

Houston temperature yesterday

Maximum temperature yesterday: 67 °F (at 2:53 PM)
Minimum temperature yesterday: 46 °F (at 6:53 AM)
Average temperature yesterday: 57 °F

Past Weeks' High & Low Weather Summary

 TemperatureHumidityPressure
High78 °F (Jan 27, 3:53 PM)100% (Jan 20, 12:53 AM)30.42 "Hg (Jan 20, 12:53 AM)
Low36 °F (Jan 16, 5:53 AM)24% (Jan 18, 3:53 PM)29.92 "Hg (Jan 20, 3:53 PM)
Average52 °F72%30.18 "Hg
* Reported Jan 12 5:53 PM — Jan 27 5:53 PM, Houston, Weather by CustomWeather, © 2014

Note: Actual official high and low records may vary slightly from our data, if they occured in-between our weather recording intervals... More about our weather records

Advertising

Houston weather history for previous 24 hours

 ConditionsComfort  
Time TempWeatherWind HumidityBarometerVisibility
5:53 PM
Jan 27
73 °FPassing clouds.No wind34%30.12 "Hg10 mi
4:53 PM78 °FSunny.3 mph28%30.11 "Hg10 mi
3:53 PM78 °FSunny.No wind28%30.11 "Hg10 mi
2:53 PM77 °FSunny.6 mph28%30.11 "Hg10 mi
1:53 PM76 °FSunny.7 mph29%30.11 "Hg10 mi
12:53 PM73 °FSunny.5 mph30%30.13 "Hg10 mi
11:53 AM70 °FSunny.8 mph35%30.16 "Hg10 mi
10:53 AM68 °FSunny.7 mph36%30.18 "Hg10 mi
9:53 AM63 °FSunny.8 mph45%30.18 "Hg10 mi
8:53 AM55 °FPassing clouds.8 mph62%30.17 "Hg10 mi
7:53 AM50 °FPassing clouds.6 mph71%30.16 "Hg10 mi
6:53 AM49 °FPassing clouds.6 mph74%30.14 "Hg10 mi
5:53 AM49 °FPassing clouds.6 mph77%30.13 "Hg10 mi
4:53 AM50 °FPassing clouds.6 mph77%30.13 "Hg10 mi
3:53 AM50 °FPassing clouds.7 mph77%30.13 "Hg10 mi
2:53 AM51 °FPassing clouds.6 mph77%30.14 "Hg10 mi
1:53 AM51 °FPassing clouds.6 mph77%30.15 "Hg10 mi
12:53 AM52 °FPassing clouds.5 mph75%30.16 "Hg10 mi
11:53 PM
Jan 26
54 °FPartly cloudy.5 mph69%30.16 "Hg10 mi
10:53 PM54 °FPassing clouds.6 mph67%30.17 "Hg10 mi
9:53 PM56 °FPassing clouds.7 mph60%30.18 "Hg10 mi
8:53 PM56 °FPassing clouds.6 mph55%30.18 "Hg10 mi
7:53 PM57 °FPassing clouds.6 mph53%30.18 "Hg10 mi
Weather by CustomWeather, © 2014

See weather overviewHow to use our weather pages